Satellite-Ground Cal/Val Site Overpasses Predictions

Prediction of Satellite NPP Overpassing Cal/Val Site: Antarctic Dome C

Ground Cal/Val Site Location: Latitude: -75.10, Longitude: 123.35; Satellite-Ground Site NADIR distance within 100 km.

Table of predicted overpasses for the next 14.0 days since TLE Epoch: 3/15/2025
Interval Starting Time Ending Time Minimum Distance Time Minimum Distance (km)
1 03/15/2025 07:44:34 03/15/2025 07:44:55 03/15/2025 07:44:44 68.04
2 03/16/2025 07:25:40 03/16/2025 07:26:07 03/16/2025 07:25:53 40.15
3 03/18/2025 15:08:03 03/18/2025 15:08:10 03/18/2025 15:08:07 97.03
4 03/19/2025 14:49:01 03/19/2025 14:49:30 03/19/2025 14:49:16 14.47
5 03/21/2025 07:31:48 03/21/2025 07:32:17 03/21/2025 07:32:02 5.35
6 03/24/2025 14:55:09 03/24/2025 14:55:38 03/24/2025 14:55:23 21.00
7 03/25/2025 14:36:26 03/25/2025 14:36:40 03/25/2025 14:36:33 86.05
8 03/26/2025 07:37:56 03/26/2025 07:38:24 03/26/2025 07:38:10 30.57
